JINJUSat 1B
1 63210U 25052A 26127.67177036 .00011720 00000-0 37851-3 0 9999
2 63210 97.4039 24.4044 0002259 188.9219 171.1983 15.32265681 63895
NUSHSAT 1
1 63211U 25052B 26127.45015611 .00014506 00000-0 43719-3 0 9991
2 63211 97.4020 24.6186 0001921 186.8857 173.2360 15.34421836 63895
TEVEL2-4
1 63213U 25052D 26127.34351068 .00013355 00000-0 41835-3 0 9998
2 63213 97.3942 23.7047 0000867 192.3287 167.7934 15.33213203 63859
TEVEL2-5
1 63214U 25052E 26127.42497667 .00013024 00000-0 40999-3 0 9997
2 63214 97.3940 23.7449 0000887 190.7717 169.3507 15.33063100 63860
TEVEL2-6
1 63215U 25052F 26127.43631863 .00013166 00000-0 41491-3 0 9992
2 63215 97.3943 23.7411 0000918 202.0726 158.0476 15.33025348 63867
TEVEL2-1
1 63217U 25052H 26127.64779811 .00012790 00000-0 40924-3 0 9995
2 63217 97.3920 23.6233 0000505 248.1895 111.9293 15.32544551 63883
TEVEL2-3
1 63218U 25052J 26127.44790774 .00012532 00000-0 40053-3 0 9992
2 63218 97.3917 23.4407 0000519 254.1419 105.9765 15.32586019 63854
TEVEL2-2
1 63219U 25052K 26127.45241872 .00012510 00000-0 40034-3 0 9999
2 63219 97.3918 23.4296 0000530 256.2484 103.8699 15.32544809 63854
TEVEL2-9
1 63237U 25052AD 26127.24807855 .00012079 00000-0 40962-3 0 9995
2 63237 97.3984 22.6851 0004212 295.0647 65.0156 15.30675530 63769
TEVEL2-7
1 63238U 25052AE 26127.67388243 .00011020 00000-0 37697-3 0 9994
2 63238 97.3980 23.0421 0004271 292.5848 67.4940 15.30419881 63823
TEVEL2-8
1 63239U 25052AF 26127.68168148 .00010678 00000-0 36555-3 0 9996
2 63239 97.3981 23.0281 0004235 293.5171 66.5625 15.30402015 63820
HYDRA-W
1 63490U 25052BL 26113.93882235 .05662091 24406-5 29537-2 0 9997
2 63490 97.3690 18.2798 0008685 203.5899 156.4993 16.20186780 62336
HADES-ICM (SO-125)
1 63492U 25052BN 26125.23154520 .00757455 00000-0 29228-2 0 9994
2 63492 97.3784 28.6812 0006451 159.5468 200.6062 15.85436039 64005
SPIRONE
1 66657U 25274H 26127.78682281 .00001449 00000-0 14329-3 0 9990
2 66657 97.7470 57.6633 0012931 142.8519 217.3598 14.93380868 24193
K-HERO
1 66660U 25274L 26127.53489448 .00001705 00000-0 16580-3 0 9993
2 66660 97.7475 57.5458 0014771 148.6969 211.5133 14.93806354 24164
SNUGLITE-III DURI
1 66661U 25274M 26127.79191963 .00001175 00000-0 11581-3 0 9991
2 66661 97.7477 57.8183 0015332 148.8735 211.3396 14.93863444 24209
SilverSat
1 66909U 98067XV 26113.44966717 .07226154 12288-4 11979-2 0 9998
2 66909 51.6027 190.0749 0007952 333.4666 26.5949 16.32457272 22308
SAKHACUBE-CHOLBON
1 67290U 25313AU 26127.46483978 .00007118 00000-0 29501-3 0 9992
2 67290 97.3933 203.0307 0010724 134.6081 225.6033 15.24146811 19770
RS95S (QMR-KWT-2)
1 67291U 25313AV 26127.48595536 .00010449 00000-0 41786-3 0 9999
2 67291 97.3936 203.1529 0010464 134.2337 225.9762 15.25232270 19781
Ten-Koh2
1 68261U 25241B 26127.34956553 .00004832 00000-0 21422-3 0 9996
2 68261 51.6508 153.9225 0006077 14.9222 345.1934 15.23375453 8686
JACK-002
1 68417U 26067B 26127.84937047 .00005372 00000-0 26072-3 0 9994
2 68417 97.4543 86.9628 0003979 75.9697 284.1979 15.18894335 5822
DISCO 2
1 68431U 26067R 26127.79474166 .00006383 00000-0 31268-3 0 9998
2 68431 97.4583 86.9017 0004112 115.3675 244.7986 15.18492801 5810
HADES-SA (SpinnyONE)
1 68446U 26067AG 26127.82293743 .00013614 00000-0 67692-3 0 9993
2 68446 97.4392 86.7751 0006192 194.4351 165.6707 15.17737735 5804
PARUS-6U1
1 68456U 26067AS 26127.82766461 .00004905 00000-0 25084-3 0 9998
2 68456 97.4533 86.8336 0005241 184.0741 176.0451 15.17100390 5818
SAL-E
1 68458U 26067AU 26127.82733826 .00006472 00000-0 32896-3 0 9999
2 68458 97.4455 86.7989 0005153 193.6240 166.4855 15.17193562 5812
FSI-SAT 2
1 68792U 26088A 26127.83958212 .00004108 00000-0 28170-3 0 9996
2 68792 97.5017 278.1343 0013546 242.9546 117.0299 15.06501614 2215
OrigamiSat 2
1 68795U 26088D 26127.36072617 .00003500 00000-0 23122-3 0 9990
2 68795 97.5032 277.7016 0015048 216.1436 143.8776 15.07967504 2141
ARICA 2
1 68796U 26088E 26127.35974830 .00004427 00000-0 29035-3 0 9996
2 68796 97.5018 277.6989 0015122 214.3003 145.7251 15.08088015 2148
WASEDA-SAT-ZERO-II
1 68797U 26088F 26127.35927579 .00005352 00000-0 34942-3 0 9996
2 68797 97.5020 277.6993 0015112 214.2165 145.8091 15.08165824 2141
MANGARO-II-Piscus
1 68798U 26088G 26127.48869307 .00003738 00000-0 24298-3 0 9994
2 68798 97.5027 277.8353 0018377 217.2559 142.7395 15.08478138 2167
IO-86
1 40931U 25360.30710720 .00000000 00000-0 12800-3 0 00
2 40931 6.0006 332.5373 0012733 338.8432 8.1437 14.79075515 01
LILIUM-4
1 71922C 26067AC 26089.50133053 -.00014632 00000+0 -74472-3 0 04
2 71922 97.4497 49.1617 0004341 5.9603 355.7042 15.16896692 16
